This demonstration page uses our WeatherBlox Daily Observations layout. Learn more.

Left ArrowRight Arrow

39.51506, -84.39828

Hourly Observations for August 6, 2016

Temp ( °F °C ) Dew Point ( °F °C ) Humidity (%) Winds ( mph kmh ) Pressure ( in mb ) Visibility ( mi km ) Precip ( " mm )
12:15 am 00:15 Partly Cloudy 77 25.1 69 20.5 76 76 N N/A 29.88 1012 10 16 N/A
12:35 am 00:35 Partly Cloudy 77 25.1 70 21 78 78 N N/A 29.88 1012 10 16 N/A
12:55 am 00:55 Cloudy 77 25.1 70 21 78 78 SSW 3 6 29.88 1012 10 16 N/A
1:15 am 01:15 Cloudy 77 25.1 70 21 78 78 SW 3 6 29.88 1012 10 16 N/A
1:35 am 01:35 Cloudy 77 25.1 70 21 78 78 N N/A 29.88 1012 10 16 N/A
1:55 am 01:55 Cloudy 77 25.1 69 20.8 77 77 N N/A 29.88 1012 10 16 N/A
2:15 am 02:15 Cloudy 77 25.1 69 20.8 77 77 N N/A 29.88 1012 10 16 N/A
2:35 am 02:35 Cloudy with Light Rain 77 25.1 70 21 78 78 N N/A 29.88 1012 10 16 N/A
2:55 am 02:55 Cloudy 77 25.1 70 21.3 80 80 N N/A 29.88 1012 10 16 N/A
3:15 am 03:15 Cloudy 77 25.1 71 21.4 80 80 N N/A 29.88 1012 10 16 N/A
3:35 am 03:35 Cloudy 77 25.1 71 21.4 80 80 N N/A 29.88 1012 10 16 N/A
3:55 am 03:55 Cloudy 77 25.1 70 20.9 78 78 NNW 6 9 29.88 1012 10 16 N/A
4:15 am 04:15 Cloudy 77 25.1 70 20.9 78 78 NNW 7 11 29.88 1012 10 16 N/A
4:35 am 04:35 Cloudy 77 25.1 69 20.5 76 76 NNW 8 13 29.88 1012 10 16 N/A
4:55 am 04:55 Cloudy 77 25.1 66 18.7 68 68 N 10 17 29.88 1012 10 16 N/A
5:15 am 05:15 Cloudy with Drizzle 74 23.6 63 17.1 67 67 N 8 13 29.91 1013 10 16 N/A
5:35 am 05:35 Cloudy 74 23.6 64 17.7 70 70 N N/A 29.91 1013 10 16 N/A
5:55 am 05:55 Cloudy 74 23.6 64 17.6 69 69 N N/A 29.91 1013 10 16 N/A
6:15 am 06:15 Cloudy 74 23.6 65 18.1 71 71 N N/A 29.91 1013 10 16 N/A
6:35 am 06:35 Cloudy 74 23.6 66 18.7 74 74 N N/A 29.91 1013 10 16 N/A
6:55 am 06:55 Cloudy 74 23.6 66 19.1 76 76 N N/A 29.91 1013 10 16 N/A
7:15 am 07:15 Partly Cloudy 74 23.6 67 19.4 77 77 N N/A 29.91 1013 10 16 N/A
7:35 am 07:35 Sunny 74 23.6 67 19.4 77 77 N N/A 29.91 1013 10 16 N/A
7:55 am 07:55 Mostly Cloudy 74 23.6 65 18.1 71 71 N 5 7 29.91 1013 10 16 N/A
8:15 am 08:15 Cloudy 74 23.6 62 16.7 65 65 N 8 13 29.94 1014 10 16 N/A
8:35 am 08:35 Partly Cloudy 76 24.6 62 16.9 62 62 N 3 6 29.91 1013 10 16 N/A
8:55 am 08:55 Partly Cloudy 74 23.6 60 15.6 61 61 N 8 13 29.94 1014 10 16 N/A
9:15 am 09:15 Mostly Cloudy 77 25 62 16.5 59 59 N 6 9 29.94 1014 10 16 N/A
9:35 am 09:35 Mostly Cloudy 77 25.1 61 15.9 57 57 N 8 13 29.94 1014 10 16 N/A
9:55 am 09:55 Mostly Cloudy 77 25.1 60 15.6 56 56 N 9 15 29.94 1014 10 16 N/A
10:15 am 10:15 Mostly Cloudy 78 25.5 61 15.9 55 55 N 6 9 29.94 1014 10 16 N/A
10:35 am 10:35 Cloudy 79 26.2 60 15.3 51 51 N N/A 29.94 1014 10 16 N/A
10:55 am 10:55 Partly Cloudy 80 26.5 59 15.1 50 50 NNW 5 7 29.94 1014 10 16 N/A
11:15 am 11:15 Sunny 80 26.5 57 14 46 46 NW 10 17 29.94 1014 10 16 N/A
11:35 am 11:35 Sunny 81 27 56 13.2 43 43 NNW 8 13 29.94 1014 10 16 N/A
11:55 am 11:55 Sunny 81 27.2 55 12.9 41 41 NNW 7 11 29.94 1014 10 16 N/A
12:15 pm 12:15 Sunny 82 28 54 12.1 37 37 N 3 6 29.91 1013 10 16 N/A
12:35 pm 12:35 Sunny 83 28.2 54 12.3 37 37 NNW 3 6 29.91 1013 10 16 N/A
12:55 pm 12:55 Sunny 83 28.4 53 11.5 35 35 N 9 15 29.91 1013 10 16 N/A
1:15 pm 13:15 Sunny 83 28.6 51 10.5 32 32 NW 14 22 29.91 1013 10 16 N/A
1:35 pm 13:35 Sunny 85 29.4 52 11 32 32 NW 12 19 29.91 1013 10 16 N/A
1:55 pm 13:55 Sunny 85 29.6 50 10 30 30 NW 9 15 29.91 1013 10 16 N/A
2:15 pm 14:15 Sunny 84 29 47 8.4 27 27 NW 10 17 29.91 1013 10 16 N/A
2:35 pm 14:35 Sunny 85 29.6 52 11.1 32 32 NNW 12 19 29.91 1013 10 16 N/A
2:55 pm 14:55 Sunny 84 29 51 10.4 31 31 NW 8 13 29.88 1012 10 16 N/A
3:15 pm 15:15 Sunny 84 28.7 52 11 33 33 NNE 3 6 29.88 1012 10 16 N/A
3:35 pm 15:35 Partly Cloudy 83 28.2 52 11.1 35 35 NW 7 11 29.88 1012 10 16 N/A
3:55 pm 15:55 Partly Cloudy 83 28.6 54 12 36 36 NNW 10 17 29.88 1012 10 16 N/A
4:15 pm 16:15 Sunny 84 28.7 53 11.6 35 35 NNW 9 15 29.88 1012 10 16 N/A
4:35 pm 16:35 Sunny 83 28.4 54 12 36 36 NW 17 28 29.88 1012 10 16 N/A
4:55 pm 16:55 Sunny 84 29.1 51 10.6 32 32 NW 16 26 29.88 1012 10 16 N/A
5:15 pm 17:15 Sunny 87 30.4 51 10.7 30 30 N 6 9 29.85 1011 10 16 N/A
5:35 pm 17:35 Sunny 88 31.1 51 10.4 28 28 N 9 15 29.85 1011 10 16 N/A
5:55 pm 17:55 Sunny 85 29.4 50 10.1 30 30 N 8 13 29.85 1011 10 16 N/A
6:15 pm 18:15 Sunny 84 28.7 50 9.9 31 31 NNW 6 9 29.85 1011 10 16 N/A
6:35 pm 18:35 Sunny 83 28.6 50 9.8 31 31 NW 5 7 29.85 1011 10 16 N/A
6:55 pm 18:55 Sunny 83 28.6 49 9.6 30 30 N 7 11 29.85 1011 10 16 N/A
7:15 pm 19:15 Sunny 83 28.2 50 10 32 32 N N/A 29.85 1011 10 16 N/A
7:35 pm 19:35 Sunny 83 28.2 51 10.8 34 34 NNW 5 7 29.88 1012 10 16 N/A
7:55 pm 19:55 Sunny 82 28 54 12.1 37 37 N N/A 29.88 1012 10 16 N/A
8:15 pm 20:15 Sunny 80 26.9 56 13.4 43 43 W 3 6 29.91 1013 10 16 N/A
8:35 pm 20:35 Sunny 79 26.2 58 14.7 49 49 N N/A 29.91 1013 10 16 N/A
8:55 pm 20:55 Clear 77 25 61 16.1 58 58 N N/A 29.91 1013 10 16 N/A
9:15 pm 21:15 Clear 74 23.6 62 16.6 65 65 N N/A 29.91 1013 10 16 N/A
9:35 pm 21:35 Clear 74 23.6 62 16.8 66 66 N N/A 29.91 1013 10 16 N/A
9:55 pm 21:55 Clear 74 23.6 61 15.9 62 62 N N/A 29.94 1014 10 16 N/A
10:15 pm 22:15 Clear 74 23.6 63 17.3 68 68 N N/A 29.94 1014 10 16 N/A
10:35 pm 22:35 Clear 74 23.6 62 16.8 66 66 N N/A 29.94 1014 10 16 N/A
10:55 pm 22:55 Clear 74 23.5 63 17.3 68 68 N N/A 29.94 1014 10 16 N/A
11:15 pm 23:15 Clear 72 22.4 60 15.6 66 66 N N/A 29.94 1014 10 16 N/A
11:35 pm 23:35 Clear 74 23.5 63 17.3 68 68 N N/A 29.94 1014 10 16 N/A
11:55 pm 23:55 Clear 69 20.8 61 16 74 74 N N/A 29.94 1014 10 16 N/A

Powered by AerisWeather